Date String (YYYY-MM-DD hh:mm:ss) UTC,Instrument flags,absolute air pressure of the measurement (hPa),sample flow rate (lpm),inlet stack bypass flow (lpm),air temperature of the measurement (°C),ambient temperature measured by the external sensor (°C),aerosol sample conditioner tube jacket temperature (°C),OPC LED temperature (°C),internal box temperature (°C),relative humidity of the measurement (%),span deviation,mass concentration of particles derived from Lorenz-Mie calculation of OPC scattering (μg/m³),mass concentration of particles derived from Lorenz-Mie calculation of OPC scattering (μg/m³),mass concentration of particles derived from Lorenz-Mie calculation of OPC scattering (μg/m³)
DateTimeUTC,F1_M11,P_M11,Q1_M11,Q2_M11,T1_M11,T2_M11,T3_M11,T4_M11,T5_M11,U1_M11,ZSPAN_M11,X2_M11,X0_M11,X1_M11
2024-01-21 18:00:00,SystemResetWarning,0822.3,5.01,000.00,020.5,019.9,000.0,028.7,021.8,16.3,0000.0,0001.83,0005.36,0001.46
2024-01-21 18:01:00,SystemResetWarning,0822.3,5.00,000.00,020.5,019.9,000.0,028.8,021.8,16.3,0000.0,0001.69,0004.88,0001.38
2024-01-21 18:02:00,SystemResetWarning,0822.3,5.01,000.00,020.5,019.9,000.0,028.8,021.8,16.3,0000.0,0001.59,0004.72,0001.29
2024-01-21 18:03:00,SystemResetWarning,0822.2,5.01,000.00,020.5,019.9,000.0,028.8,021.8,16.3,0000.0,0001.50,0004.59,0001.21
2024-01-21 18:04:00,SystemResetWarning,0822.2,5.00,000.00,020.5,019.9,000.0,028.8,021.8,16.2,0000.0,0001.42,0004.38,0001.15
2024-01-21 18:05:00,SystemResetWarning,0822.2,5.00,000.00,020.5,019.9,000.0,028.8,021.8,16.2,0000.0,0001.39,0004.39,0001.11
2024-01-21 18:06:00,SystemResetWarning,0822.2,5.00,000.00,020.5,019.9,000.0,028.8,021.8,16.2,0000.0,0001.34,0004.61,0001.07
2024-01-21 18:07:00,SystemResetWarning,0822.2,5.00,000.00,020.5,019.9,000.0,028.8,021.8,16.1,0000.0,0001.31,0004.97,0001.04
2024-01-21 18:08:00,SystemResetWarning,0822.2,5.00,000.00,020.5,019.9,000.0,028.8,021.8,16.1,0000.0,0001.31,0004.68,0001.04
2024-01-21 18:09:00,SystemResetWarning,0822.2,5.00,000.00,020.5,019.9,000.0,028.8,021.8,16.2,0000.0,0001.34,0004.66,0001.07
2024-01-21 18:10:00,SystemResetWarning,0822.2,5.00,000.00,020.5,019.9,000.0,028.8,021.8,16.3,0000.0,0001.28,0003.17,0001.05
2024-01-21 18:11:00,SystemResetWarning,0822.2,5.00,000.00,020.5,020.0,000.0,028.8,021.8,16.2,0000.0,0001.23,0002.54,0001.03
2024-01-21 18:12:00,SystemResetWarning,0822.2,5.00,000.00,020.5,020.0,000.0,028.8,021.9,16.1,0000.0,0001.24,0002.64,0001.03
2024-01-21 18:13:00,SystemResetWarning,0822.2,5.00,000.00,020.5,020.0,000.0,028.8,021.8,16.4,0000.0,0001.27,0002.80,0001.04
2024-01-21 18:14:00,SystemResetWarning,0822.1,5.01,000.00,020.5,020.0,000.0,028.8,021.9,16.3,0000.0,0001.32,0002.88,0001.07
2024-01-21 18:15:00,SystemResetWarning,0822.1,5.01,000.00,020.5,020.0,000.0,028.9,021.8,16.3,0000.0,0001.34,0003.01,0001.07
2024-01-21 18:16:00,SystemResetWarning,0822.1,4.99,000.00,020.5,020.0,000.0,028.9,021.9,16.5,0000.0,0001.33,0002.99,0001.06
2024-01-21 18:17:00,SystemResetWarning,0822.1,4.99,000.00,020.5,020.0,000.0,028.9,021.9,17.5,0000.0,0001.30,0002.73,0001.05
2024-01-21 18:18:00,SystemResetWarning,0822.1,4.99,000.00,020.6,020.0,000.0,028.9,021.8,18.6,0000.0,0001.32,0002.21,0001.05
2024-01-21 18:19:00,SystemResetWarning,0822.1,5.01,000.00,020.6,020.0,000.0,028.9,021.8,18.3,0000.0,0001.33,0002.17,0001.05
2024-01-21 18:20:00,SystemResetWarning,0822.0,5.01,000.00,020.6,020.0,000.0,028.9,021.8,18.1,0000.0,0001.32,0002.25,0001.03
2024-01-21 18:21:00,SystemResetWarning,0822.0,4.99,000.00,020.6,020.0,000.0,028.9,021.8,17.8,0000.0,0001.31,0002.35,0001.02
2024-01-21 18:22:00,SystemResetWarning,0822.0,5.00,000.00,020.6,020.0,000.0,028.9,021.8,17.6,0000.0,0001.29,0002.34,0000.98
2024-01-21 18:23:00,SystemResetWarning,0821.9,5.00,000.00,020.6,020.0,000.0,028.9,021.9,17.2,0000.0,0001.25,0002.22,0000.94
2024-01-21 18:24:00,SystemResetWarning,0822.0,4.99,000.00,020.6,020.0,000.0,028.9,021.9,17.2,0000.0,0001.19,0002.02,0000.91
2024-01-21 18:25:00,SystemResetWarning,0822.0,5.00,000.00,020.6,020.0,000.0,028.9,021.9,17.5,0000.0,0001.11,0001.91,0000.86
2024-01-21 18:26:00,SystemResetWarning,0821.9,5.00,000.00,020.6,020.0,000.0,028.9,021.9,17.3,0000.0,0001.03,0001.71,0000.80
2024-01-21 18:27:00,SystemResetWarning,0822.0,4.99,000.00,020.6,020.0,000.0,028.9,021.9,17.3,0000.0,0001.00,0001.83,0000.77
2024-01-21 18:28:00,SystemResetWarning,0821.9,5.00,000.00,020.6,020.0,000.0,028.9,021.9,17.7,0000.0,0000.97,0001.82,0000.74
2024-01-21 18:29:00,SystemResetWarning,0821.9,5.00,000.00,020.6,020.0,000.0,028.9,021.9,18.1,0000.0,0000.89,0001.67,0000.70
2024-01-21 18:30:00,SystemResetWarning,0821.9,5.00,000.00,020.6,020.0,000.0,028.9,021.9,17.7,0000.0,0000.84,0001.60,0000.67
2024-01-21 18:31:00,SystemResetWarning,0822.0,5.00,000.00,020.6,020.0,000.0,028.9,021.9,17.7,0000.0,0000.77,0001.44,0000.63
2024-01-21 18:32:00,SystemResetWarning,0821.9,5.00,000.00,020.6,020.0,000.0,029.0,021.9,18.9,0000.0,0000.75,0001.26,0000.61
2024-01-21 18:33:00,SystemResetWarning,0821.9,5.00,000.00,020.6,020.0,000.0,029.0,021.9,19.7,0000.0,0000.73,0001.22,0000.61
2024-01-21 18:34:00,SystemResetWarning,0821.8,5.00,000.00,020.6,020.0,000.0,029.0,021.9,19.6,0000.0,0000.72,0001.19,0000.61
2024-01-21 18:35:00,SystemResetWarning,0821.8,5.00,000.00,020.6,020.0,000.0,029.0,021.9,19.3,0000.0,0000.70,0001.15,0000.61
2024-01-21 18:36:00,SystemResetWarning,0821.8,5.00,000.00,020.6,020.1,000.0,029.0,022.0,19.5,0000.0,0000.69,0001.11,0000.60
2024-01-21 18:37:00,SystemResetWarning,0821.8,5.00,000.00,020.6,020.1,000.0,029.0,022.0,19.4,0000.0,0000.69,0001.12,0000.60
2024-01-21 18:38:00,SystemResetWarning,0821.8,5.01,000.00,020.7,020.1,000.0,029.0,022.0,19.3,0000.0,0000.74,0001.11,0000.64
2024-01-21 18:39:00,SystemResetWarning,0821.8,5.00,000.00,020.7,020.1,000.0,029.0,022.0,19.6,0000.0,0001.02,0001.58,0000.87
2024-01-21 18:40:00,SystemResetWarning,0821.8,5.00,000.00,020.7,020.1,000.0,029.0,022.0,19.5,0000.0,0001.34,0002.08,0001.14
2024-01-21 18:41:00,SystemResetWarning,0821.7,5.00,000.00,020.7,020.1,000.0,029.0,022.0,19.4,0000.0,0001.75,0002.69,0001.46
2024-01-21 18:42:00,SystemResetWarning,0821.7,5.00,000.00,020.7,020.1,000.0,029.0,022.0,19.3,0000.0,0002.15,0003.72,0001.76
2024-01-21 18:43:00,SystemResetWarning,0821.6,5.00,000.00,020.7,020.1,000.0,029.0,022.0,19.4,0000.0,0002.44,0004.90,0001.99
2024-01-21 18:44:00,SystemResetWarning,0821.6,5.00,000.00,020.7,020.1,000.0,029.0,022.1,19.5,0000.0,0002.70,0006.64,0002.16
2024-01-21 18:45:00,SystemResetWarning,0821.6,5.00,000.00,020.7,020.1,000.0,029.0,022.1,19.6,0000.0,0002.89,0007.09,0002.29
2024-01-21 18:46:00,SystemResetWarning,0821.6,5.00,000.00,020.7,020.2,000.0,029.0,022.1,19.7,0000.0,0003.06,0007.57,0002.43
2024-01-21 18:47:00,SystemResetWarning,0821.9,5.00,000.00,020.7,020.2,000.0,029.0,022.1,19.7,0000.0,0003.22,0008.26,0002.60
2024-01-21 18:48:00,SystemResetWarning,0821.9,5.00,000.00,020.8,020.2,000.0,029.1,022.1,19.5,0000.0,0003.35,0008.50,0002.75
2024-01-21 18:49:00,SystemResetWarning,0822.0,4.99,000.00,020.8,020.2,000.0,029.1,022.1,19.6,0000.0,0003.47,0008.68,0002.94
2024-01-21 18:50:00,SystemResetWarning,0822.0,5.00,000.00,020.8,020.2,000.0,029.1,022.1,19.8,0000.0,0003.56,0009.34,0003.07
2024-01-21 18:51:00,SystemResetWarning,0821.9,5.00,000.00,020.8,020.2,000.0,029.1,022.1,19.6,0003.4,0003.60,0010.27,0003.11
2024-01-21 18:52:00,SystemResetWarning,0822.0,5.00,000.00,020.8,020.3,000.0,029.1,022.2,19.7,0001.1,0003.57,0010.74,0003.08
2024-01-21 18:53:00,SystemResetWarning,0822.0,5.00,000.00,020.8,020.3,000.0,029.1,022.2,19.9,0000.0,0003.53,0010.95,0003.07
2024-01-21 18:54:00,SystemResetWarning,0821.9,5.00,000.00,020.8,020.3,000.0,029.1,022.2,19.9,0001.0,0003.80,0010.82,0003.33
2024-01-21 18:55:00,SystemResetWarning,0821.9,5.01,000.00,020.8,020.3,000.0,029.1,022.2,20.0,0002.7,0004.26,0010.93,0003.74
2024-01-21 18:56:00,SystemResetWarning,0821.5,5.00,000.00,020.8,020.3,000.0,029.1,022.2,19.7,0002.7,0004.76,0011.48,0004.21
2024-01-21 18:57:00,SystemResetWarning,0821.4,5.00,000.00,020.8,020.3,000.0,029.1,022.2,19.6,0002.1,0005.26,0012.17,0004.61
2024-01-21 18:58:00,SystemResetWarning,0821.4,5.00,000.00,020.9,020.3,000.0,029.1,022.2,19.3,0002.0,0005.70,0012.52,0005.00
2024-01-21 18:59:00,SystemResetWarning,0821.4,4.99,000.00,020.9,020.3,000.0,029.1,022.2,19.2,0002.1,0006.04,0013.01,0005.31
